Content
SEND FEEDBACK

Daily
Averages
Monthly
Summary
United States of America

LAURIE, MISSOURI


Home > North America > United States > Missouri
Elevation: 282 meters     Latitude: 38 25N     Longitude: 092 50W

WEATHER
 
SELECT A DAY
Number of Records: 455,163;   Date Range: 1/1/95 - 9/18/14
 
SHARE

PRINT THIS DATA

[ ← Previous Day ]
WEATHER ALMANAC - 31 JANUARY, 2013
[ Next Day → ]
[ °F ]   °C
Weather ElementAverageHighLow
Temperature-4.3 °C2 °C (12:15 pm)-12 °C (11:15 pm)
Dewpoint-11.1 °C-6 °C (12:15 pm)-19 °C (11:15 pm)
Humidity60.2 %74 % (5:55 am)40 % (4:15 pm)
Barometer1020.7 hPa1031.5 hPa (10:55 pm)1015.2 hPa (5:35 am)
Wind Speed13.7 km/h25.9 km/h (3:15 pm)
Wind Gust53.8 km/h (3:35 pm)
Weather ElementAverage
Visibility15.6 km
Wind DirectionWNW (290.9 °)

Weather ElementTotal
Precipitation---
Heating Degree Days23.3 (Base 18.3)
Averaged from 66 records on 31 January, 2013
WEATHER CONDITIONS BREAKOUT
WIND DIRECTION BREAKOUT
WEATHER BY HOUR - 31 JANUARY, 2013
[ °F ]   °C
Local TimeTemperatureDewpointHumidityBarometerVisibilityWind DirectionWind SpeedGust SpeedPrecipitationEventsConditions
12:35 AM-3 °C-9 °C64 %1015.9 hPa16.1 kmWest (270°)14.8 km/h25.9 km/hOvercast
12:55 AM-3 °C-8 °C69 %1015.9 hPa16.1 kmWest (260°)22.2 km/h31.5 km/hOvercast
1:15 AM-3 °C-9 °C64 %1015.6 hPa16.1 kmWest (270°)22.2 km/h31.5 km/hOvercast
1:35 AM-3 °C-9 °C64 %1015.9 hPa16.1 kmWest (280°)13 km/h31.5 km/hOvercast
1:55 AM-3 °C-10 °C59 %1015.9 hPa16.1 kmWNW (300°)11.1 km/hOvercast
2:15 AM-4 °C-10 °C64 %1015.9 hPa16.1 kmWNW (300°)14.8 km/hScattered Clouds
2:35 AM-4 °C-10 °C64 %1016.3 hPa16.1 kmWNW (300°)13 km/h27.8 km/hClear
2:55 AM-4 °C-10 °C64 %1016.3 hPa16.1 kmWNW (290°)9.3 km/hClear
3:15 AM-4 °C-10 °C64 %1015.9 hPa16.1 kmWNW (290°)7.4 km/hPartly Cloudy
3:35 AM-4 °C-9 °C69 %1015.9 hPa16.1 kmWest (270°)5.6 km/hMostly Cloudy
3:55 AM-4 °C-9 °C69 %1015.6 hPa16.1 kmWNW (290°)7.4 km/hOvercast
4:15 AM-4 °C-9 °C69 %1015.6 hPa16.1 kmWNW (290°)7.4 km/hOvercast
4:35 AM-4 °C-9 °C69 %1015.6 hPa16.1 kmWest (260°)11.1 km/hOvercast
4:55 AM-4 °C-9 °C69 %1015.6 hPa16.1 kmWSW (240°)11.1 km/hOvercast
5:15 AM-4 °C-9 °C69 %1015.6 hPa16.1 kmWSW (240°)9.3 km/hOvercast
5:35 AM-4 °C-9 °C69 %1015.2 hPa16.1 kmSSW (210°)9.3 km/hOvercast
5:55 AM-4 °C-8 °C74 %1015.6 hPa16.1 kmWest (260°)9.3 km/hOvercast
6:15 AM-4 °C-8 °C74 %1015.6 hPa16.1 kmSW (230°)7.4 km/hOvercast
6:35 AM-4 °C-8 °C74 %1015.9 hPa16.1 kmSW (230°)9.3 km/hOvercast
6:55 AM-4 °C-8 °C74 %1015.9 hPa16.1 kmWSW (240°)7.4 km/hOvercast
7:15 AM-3 °C-8 °C69 %1016.6 hPa16.1 kmSW (230°)11.1 km/hOvercast
7:35 AM-3 °C-8 °C69 %1016.6 hPa16.1 kmWSW (250°)11.1 km/hOvercast
7:55 AM-4 °C-8 °C74 %1016.9 hPa16.1 kmWSW (240°)9.3 km/hMostly Cloudy
8:15 AM-3 °C-8 °C69 %1017.6 hPa16.1 kmWest (280°)11.1 km/hScattered Clouds
8:35 AM-3 °C-7 °C74 %1017.9 hPa16.1 kmWest (270°)7.4 km/hClear
8:55 AM-2 °C-7 °C69 %1017.9 hPa16.1 kmWSW (250°)11.1 km/hClear
9:15 AM-2 °C-7 °C69 %1018.3 hPa16.1 kmWest (260°)9.3 km/hClear
9:35 AM-1 °C-8 °C60 %1018.3 hPa16.1 kmWest (270°)9.3 km/hPartly Cloudy
9:55 AM-1 °C-8 °C60 %1018.3 hPa16.1 kmWest (270°)13 km/hMostly Cloudy
10:15 AM0 °C-7 °C60 %1018.3 hPa16.1 kmWest (260°)14.8 km/hOvercast
10:35 AM1 °C-7 °C56 %1018.6 hPa16.1 kmWest (280°)14.8 km/h27.8 km/hScattered Clouds
10:55 AM1 °C-7 °C56 %1018.6 hPa16.1 kmNW (310°)11.1 km/h25.9 km/hPartly Cloudy
11:15 AM1 °C-7 °C56 %1019 hPa16.1 kmWNW (300°)16.7 km/hMostly Cloudy
11:35 AM1 °C-7 °C56 %1019 hPa16.1 kmNW (310°)14.8 km/hMostly Cloudy
11:55 AM1 °C-7 °C56 %1018.6 hPa16.1 kmNW (320°)9.3 km/h29.6 km/hMostly Cloudy
12:15 PM2 °C-6 °C56 %1019 hPa16.1 kmWNW (290°)16.7 km/h31.5 km/hOvercast
12:35 PM1 °C-8 °C52 %1019 hPa12.9 kmWNW (300°)20.4 km/hOvercast
12:55 PM0 °C-8 °C55 %1019.6 hPa16.1 kmNW (310°)20.4 km/h31.5 km/hOvercast
1:15 PM-1 °C-8 °C60 %1020.3 hPa8 kmNW (310°)14.8 km/hMostly Cloudy
1:35 PM-2 °C-7 °C69 %1020.7 hPa3.2 kmWNW (300°)18.5 km/h29.6 km/hOvercast
2:15 PM-3 °C-9 °C64 %1021.3 hPa14.5 kmWNW (300°)24.1 km/h40.7 km/hOvercast
2:35 PM-3 °C-9 °C64 %1021.7 hPa16.1 kmNW (320°)13 km/hMostly Cloudy
2:55 PM-3 °C-9 °C64 %1021.7 hPa14.5 kmNW (310°)9.3 km/h29.6 km/hMostly Cloudy
3:15 PM-3 °C-11 °C55 %1022 hPa16.1 kmWNW (300°)25.9 km/h40.7 km/hMostly Cloudy
3:35 PM-3 °C-14 °C43 %1023 hPa16.1 kmNW (320°)20.4 km/h53.8 km/hOvercast
3:55 PM-4 °C-14 °C46 %1023.4 hPa16.1 kmNW (320°)20.4 km/h31.5 km/hPartly Cloudy
4:15 PM-4 °C-16 °C40 %1023.4 hPa16.1 kmNW (310°)25.9 km/h42.6 km/hClear
4:35 PM-5 °C-16 °C43 %1023.7 hPa16.1 kmWNW (300°)18.5 km/h40.7 km/hClear
4:55 PM-5 °C-16 °C43 %1024 hPa16.1 kmNW (310°)18.5 km/h27.8 km/hClear
5:15 PM-6 °C-16 °C46 %1024.4 hPa16.1 kmNNW (330°)14.8 km/h31.5 km/hClear
5:35 PM-6 °C-16 °C46 %1024.7 hPa16.1 kmNW (320°)16.7 km/h25.9 km/hClear
5:55 PM-7 °C-16 °C49 %1025.1 hPa16.1 kmNW (310°)13 km/h25.9 km/hClear
6:15 PM-7 °C-16 °C49 %1025.7 hPa16.1 kmNW (320°)16.7 km/h29.6 km/hClear
6:35 PM-7 °C-16 °C49 %1026.1 hPa16.1 kmNW (320°)22.2 km/h29.6 km/hClear
7:15 PM-8 °C-16 °C53 %1027.4 hPa16.1 kmNW (310°)11.1 km/h31.5 km/hPartly Cloudy
7:35 PM-8 °C-15 °C58 %1027.4 hPa16.1 kmNNW (340°)14.8 km/h37 km/hScattered Clouds
8:15 PM-9 °C-18 °C49 %1028.4 hPa16.1 kmNNW (340°)16.7 km/h29.6 km/hPartly Cloudy
8:35 PM-9 °C-17 °C53 %1028.8 hPa16.1 kmNNW (330°)13 km/h33.3 km/hClear
9:15 PM-11 °C-18 °C57 %1029.5 hPa16.1 kmNNW (330°)13 km/h25.9 km/hClear
9:35 PM-11 °C-18 °C57 %1030.1 hPa16.1 kmNNW (340°)13 km/hClear
10:15 PM-11 °C-18 °C57 %1030.8 hPa16.1 kmNNW (330°)7.4 km/hPartly Cloudy
10:35 PM-11 °C-17 °C62 %1031.2 hPa16.1 kmNW (310°)13 km/h29.6 km/hScattered Clouds
10:55 PM-11 °C-18 °C57 %1031.5 hPa16.1 kmNW (320°)13 km/h25.9 km/hClear
11:15 PM-12 °C-19 °C57 %1031.2 hPa16.1 kmWNW (300°)13 km/hClear
11:35 PM-12 °C-19 °C57 %1031.5 hPa16.1 kmNW (320°)11.1 km/h25.9 km/hClear
11:55 PM-12 °C-19 °C57 %1031.2 hPa16.1 kmNW (310°)13 km/hClear
Hourly data recorded from KAIZ, located 0 kilometers away from Laurie, Missouri







STORIES FROM OUR PARTNERS